Weather History for KCDJ - April, 2013

Change the Weather History Date:

Thursday, April 18, 2013

  Actual Average (KIRK) Record (KIRK)
Temperature  
Mean Temperature 46 °F 53 °F  
Max Temperature 55 °F 64 °F 85 °F (1925)
Min Temperature 37 °F 42 °F 21 °F (1983)
Degree Days  
Heating Degree Days 20 13  
Month to date heating degree days 276  
Since 1 July heating degree days 5563  
Cooling Degree Days 0 0  
Month to date cooling degree days 0  
Year to date cooling degree days 0  
Moisture  
Dew Point 38 °F    
Average Humidity 81    
Maximum Humidity 97    
Minimum Humidity 65    
Precipitation  
Precipitation 0.77 in 0.16 in 1.65 in (1970)
Month to date precipitation 1.89  
Year to date precipitation 7.24  
Sea Level Pressure  
Sea Level Pressure 29.70 in    
Wind  
Wind Speed 8 mph (WNW)    
Max Wind Speed 20 mph    
Max Gust Speed 29 mph    
T = Trace of Precipitation, MM = Missing Value Source: NWS Daily Summary

Daily Weather History Graph

Daily Weather History Graph

Search for Another Location

Airport or City:

Trip Planner

Search our weather history database for the weather conditions in past years. The results will help you decide how hot, cold, wet, or windy it might be!

Date:

Astronomy

Apr. 18, 2013 Rise Set
Actual Time 6:31 AM CDT 7:55 PM CDT
Civil Twilight 6:03 AM CDT 8:24 PM CDT
Nautical Twilight 5:29 AM CDT 8:58 PM CDT
Astronomical Twilight 4:54 AM CDT 9:33 PM CDT
Moon 12:44 PM CDT (4/18) 2:10 AM CDT (4/18)
Length of Visible Light 14h 20m
Length of Day
13h 23m
First Quarter, 52% of the Moon is Illuminated
Apr 18
First Quarter
Apr 25
Full
May 2
Last Quarter
May 9
New
May 17
First Quarter

Hourly Weather History & Observations

Time (CDT) Temp. Windchill Dew Point Humidity Pressure Visibility Wind Dir Wind Speed Gust Speed Precip Events Conditions
12:52 AM 54.0 °F - 52.0 °F 93% 29.68 in - Variable 3.5 mph - 0.22 in   Unknown
1:52 AM 54.0 °F - 53.1 °F 97% 29.61 in - West 4.6 mph - 0.29 in   Unknown
2:52 AM 50.0 °F - 46.9 °F 89% 29.62 in - WNW 4.6 mph - 0.18 in   Unknown
3:52 AM 48.0 °F - 45.0 °F 89% 29.62 in - Calm Calm - N/A   Unknown
4:52 AM 46.9 °F - 45.0 °F 93% 29.60 in - NNW 9.2 mph - 0.03 in   Unknown
5:52 AM 46.0 °F 41.4 °F 44.1 °F 93% 29.58 in - NNW 9.2 mph - N/A   Unknown
6:52 AM 46.0 °F 44.8 °F 44.1 °F 93% 29.60 in - NW 3.5 mph - N/A   Unknown
7:52 AM 46.0 °F 43.1 °F 44.1 °F 93% 29.55 in - NE 5.8 mph - N/A   Unknown
8:52 AM 46.0 °F 41.9 °F 43.0 °F 89% 29.57 in - WNW 8.1 mph - 0.03 in   Unknown
9:52 AM 44.1 °F 39.5 °F 42.1 °F 93% 29.59 in - West 8.1 mph - N/A   Unknown
10:52 AM 42.1 °F 34.5 °F 39.0 °F 89% 29.61 in - WNW 15.0 mph 24.2 mph 0.02 in   Unknown
11:52 AM 42.1 °F 36.1 °F 39.0 °F 89% 29.62 in - WNW 10.4 mph 20.7 mph N/A   Unknown
12:52 PM 42.1 °F 35.2 °F 36.0 °F 79% 29.68 in - West 12.7 mph 24.2 mph N/A   Unknown
1:52 PM 43.0 °F 35.4 °F 35.1 °F 74% 29.69 in - WNW 16.1 mph 24.2 mph N/A   Unknown
2:52 PM 45.0 °F - 35.1 °F 68% 29.71 in - North - - N/A   Unknown
3:52 PM 43.0 °F 35.4 °F 33.1 °F 68% 29.73 in - West 16.1 mph 26.5 mph N/A   Unknown
4:52 PM 41.0 °F 32.2 °F 32.0 °F 70% 29.77 in - WNW 18.4 mph 28.8 mph N/A   Unknown
5:52 PM 39.9 °F 30.5 °F 30.9 °F 70% 29.81 in - WNW 19.6 mph 26.5 mph N/A   Unknown
6:52 PM 39.0 °F 30.6 °F 30.0 °F 70% 29.83 in - WNW 15.0 mph 23.0 mph N/A   Unknown
7:52 PM 39.0 °F 30.6 °F 28.0 °F 65% 29.85 in - WNW 15.0 mph 23.0 mph N/A   Unknown
8:52 PM 39.0 °F 31.4 °F 28.0 °F 65% 29.88 in - WNW 12.7 mph 19.6 mph N/A   Unknown
9:52 PM 37.9 °F 28.2 °F 28.0 °F 68% 29.89 in - WNW 18.4 mph 26.5 mph N/A   Unknown
10:52 PM 37.9 °F 30.9 °F 28.0 °F 68% 29.89 in - WNW 10.4 mph - N/A   Unknown
11:52 PM 37.0 °F 31.0 °F 28.0 °F 70% 29.87 in - West 8.1 mph 20.7 mph N/A   Unknown